Location: ??
(35.5052°N, 139.7262°E)
Time: 21:41:26
(UTC+00:00)

N. Korean satellite - Pass Details

Date: 04 October 2021
Orbit: 450 x 495 km, 97.3° (Epoch: 23 October)

Event Time Altitude Azimuth Distance (km) Brightness Sun altitude
Rises 19:43:33 0° 15° (NNE) 2,562 10.5 -12.1°
Reaches altitude 10° 19:45:39 10° 18° (NNE) 1,683 9.6 -11.7°
Maximum altitude 19:49:14 63° 101° (E) 551 7.1 -10.9°
Drops below altitude 10° 19:52:50 10° 183° (S) 1,684 9.3 -10.2°
Sets 19:54:55 0° 186° (S) 2,563 10.2 -9.8°
